Flag for Germany Weather past 2 weeks in Neumünster, Schleswig-Holstein, Germany

Now
55 °F

Low clouds.


Feels Like: 55 °F
Forecast: 56 / 65 °F
Wind: 1 mph from Southwest

Location: Itzehoe

Current Time: Oct 1, 2014 at 7:04:51 AM

Latest Report: Oct 1, 2014 at 6:00 AM


Visibility: 0 mi

Pressure: 30.27 "Hg

Humidity: 99%

Dew point: 54 °F

Location of NeumünsterLocation

Historic Weather in Neumünster — Graph

°F

Neumünster temperature yesterday

Maximum temperature yesterday: 64 °F (at 3:00 PM)
Minimum temperature yesterday: 57 °F (at 4:00 AM)
Average temperature yesterday: 61 °F

Past Weeks' High & Low Weather Summary

 TemperatureHumidityPressure
High74 °F (Sep 19, 4:00 PM)100% (Sep 21, 1:00 AM)30.35 "Hg (Sep 21, 1:00 AM)
Low38 °F (Sep 23, 7:00 AM)49% (Sep 17, 1:00 PM)29.74 "Hg (Sep 24, 7:00 PM)
Average59 °F82%30.04 "Hg
* Reported Sep 16 6:00 AM — Oct 1 5:00 AM, Neumünster, Weather by CustomWeather, © 2014

Note: Actual official high and low records may vary slightly from our data, if they occured in-between our weather recording intervals... More about our weather records

Advertising

Neumünster weather history for previous 24 hours

 ConditionsComfort  
Time TempWeatherWind HumidityBarometerVisibility
5:00 AM
Oct 1
56 °FOvercast.1 mph99%30.27 "Hg0 mi
4:00 AM58 °FPassing clouds.1 mph97%30.27 "Hg1 mi
3:00 AM59 °FOvercast.2 mph98%30.27 "Hg1 mi
2:00 AM58 °FLow clouds.1 mph99%30.27 "Hg1 mi
1:00 AM59 °FOvercast.1 mph98%30.26 "Hg1 mi
12:00 AM59 °FPassing clouds.1 mph98%30.26 "Hg1 mi
11:00 PM
Sep 30
59 °FLow clouds.1 mph99%30.25 "Hg1 mi
10:00 PM58 °FLow clouds.1 mph99%30.24 "Hg0 mi
9:00 PM60 °FLow clouds.1 mph96%30.24 "Hg1 mi
7:00 PM62 °FOvercast.1 mph91%30.22 "Hg2 mi
6:00 PM63 °FOvercast.1 mph88%30.21 "Hg3 mi
4:00 PM64 °FOvercast.3 mph90%30.21 "Hg2 mi
3:00 PM64 °FOvercast.2 mph85%30.21 "Hg3 mi
2:00 PM64 °FOvercast.2 mph89%30.21 "Hg4 mi
1:00 PM64 °FLow clouds.2 mph89%30.20 "Hg4 mi
12:00 PM62 °FLow clouds.2 mph93%30.20 "Hg2 mi
10:00 AM61 °FLow clouds.2 mph96%30.19 "Hg1 mi
9:00 AM61 °FLow clouds.2 mph96%30.18 "Hg1 mi
7:00 AM61 °FLow clouds.1 mph97%30.17 "Hg1 mi
Weather by CustomWeather, © 2014

See weather overviewHow to use our weather pages